Location: Gleizolles
(44.4833°N, 6.7667°E)
Time: 15:39:47
(UTC+00:00)

Explorer 7 - Pass Details

Date: 21 June 2024
Orbit: 465 x 619 km, 50.3° (Epoch: 12 July)

Event Time Altitude Azimuth Distance (km) Brightness Sun altitude
Rises 17:00:39 0° 292° (WNW) 2,515 11.6 22.1°
Reaches altitude 10° 17:02:59 10° 282° (WNW) 1,624 11.5 21.7°
Maximum altitude 17:06:11 30° 220° (SW) 865 8.4 21.1°
Drops below altitude 10° 17:09:23 10° 158° (SSE) 1,612 8.9 20.6°
Sets 17:11:42 0° 147° (SSE) 2,491 9.8 20.2°
